DW5852 Weather Reports


time (UTC)temp
C
wind
direction
speed
KPH
gust
KPH
rain 1hr
cm
rain 24hr
cm
rain mn
cm
humidity
%
barometer
mb
20260906223737 30 207 0.0 9.7 0.00 0.00 0.00 21 1034.6
20260906223237 30 176 0.0 11.3 0.00 0.00 0.00 21 1034.6
20260906222737 30 236 0.0 8.0 0.00 0.00 0.00 22 1034.6
20260906222237 29 197 0.0 3.2 0.00 0.00 0.00 23 1034.7
20260906221734 29 145 0.0 0.0 0.00 0.00 0.00 22 1034.6
20260906221234 30 205 0.0 9.7 0.00 0.00 0.00 22 1034.6
20260906220737 29 207 0.0 4.8 0.00 0.00 0.00 22 1034.6
20260906220237 29 132 0.0 11.3 0.00 0.00 0.00 23 1034.5
20260906215734 29 253 0.0 0.0 0.00 0.00 0.00 23 1034.5
20260906215234 29 261 0.0 0.0 0.00 0.00 0.00 24 1034.5
20260906214734 29 165 0.0 0.0 0.00 0.00 0.00 24 1034.6
20260906214234 28 166 0.0 0.0 0.00 0.00 0.00 24 1034.7
20260906213734 28 165 0.0 0.0 0.00 0.00 0.00 24 1034.8
20260906213234 28 167 0.0 4.8 0.00 0.00 0.00 24 1034.8
20260906212737 29 126 0.0 9.7 0.00 0.00 0.00 24 1034.8
20260906212234 29 204 0.0 0.0 0.00 0.00 0.00 23 1034.8
20260906211734 30 249 0.0 0.0 0.00 0.00 0.00 23 1034.7
20260906211234 30 215 0.0 0.0 0.00 0.00 0.00 24 1034.8
20260906210734 29 76 0.0 3.2 0.00 0.00 0.00 24 1034.7
20260906210234 28 232 0.0 3.2 0.00 0.00 0.00 24 1034.8
20260906205734 28 32 0.0 0.0 0.00 0.00 0.00 23 1034.8
20260906205237 28 241 0.0 8.0 0.00 0.00 0.00 23 1034.9
20260906204734 29 137 0.0 9.7 0.00 0.00 0.00 23 1034.9
20260906204237 29 210 0.0 8.0 0.00 0.00 0.00 23 1034.9
20260906203734 29 155 0.0 0.0 0.00 0.00 0.00 23 1034.9
20260906203234 29 270 0.0 3.2 0.00 0.05 0.00 23 1034.9
20260906202733 30 10 0.0 0.0 0.00 0.18 0.00 23 1034.8
20260906202234 30 243 0.0 0.0 0.00 0.30 0.00 23 1034.9
20260906201737 30 122 0.0 8.0 0.00 0.46 0.00 22 1034.9
20260906201237 29 44 0.0 8.0 0.00 0.53 0.00 23 1034.9
20260906200733 30 58 6.4 14.5 0.00 0.53 0.00 24 1034.8
20260906200234 29 318 0.0 6.4 0.00 0.53 0.00 22 1034.8
20260906195733 29 82 0.0 0.0 0.00 0.53 0.00 22 1034.8
20260906195236 30 129 0.0 0.0 0.00 0.53 0.00 22 1034.8
20260906194733 30 163 0.0 0.0 0.00 0.53 0.00 23 1034.9
20260906194233 29 169 0.0 4.8 0.00 0.53 0.00 22 1034.9
20260906193734 29 136 0.0 1.6 0.00 0.53 0.00 23 1034.9
20260906193233 28 117 0.0 6.4 0.00 0.53 0.00 23 1034.9
20260906192733 28 158 0.0 4.8 0.00 0.53 0.00 24 1034.9
20260906192237 28 185 0.0 0.0 0.00 0.53 0.00 24 1034.9
20260906191733 27 184 0.0 0.0 0.00 0.53 0.00 26 1035.0
20260906191233 27 61 0.0 14.5 0.00 0.53 0.00 24 1035.0
20260906190737 27 115 0.0 0.0 0.00 0.53 0.00 27 1034.9
20260906190237 27 35 0.0 0.0 0.00 0.53 0.00 26 1035.0
20260906185734 27 74 0.0 8.0 0.00 0.53 0.00 26 1035.0
20260906185233 27 291 0.0 17.7 0.00 0.53 0.00 24 1035.1
20260906184734 28 74 0.0 12.9 0.00 0.53 0.00 25 1035.0
20260906184236 27 338 0.0 0.0 0.00 0.53 0.00 26 1035.1
20260906183736 27 89 0.0 6.4 0.00 0.53 0.00 27 1035.2
20260906183236 26 345 0.0 9.7 0.00 0.53 0.00 27 1035.2
20260906182733 26 262 0.0 19.3 0.00 0.53 0.00 27 1035.2
20260906182233 26 77 1.6 11.3 0.00 0.53 0.00 27 1035.3
20260906181733 26 41 0.0 11.3 0.00 0.53 0.00 28 1035.3
20260906181237 27 98 3.2 14.5 0.00 0.53 0.00 27 1035.3
20260906180733 26 77 0.0 14.5 0.00 0.53 0.00 29 1035.3
20260906180233 26 45 0.0 9.7 0.00 0.53 0.00 27 1035.3
20260906175737 26 143 0.0 11.3 0.00 0.53 0.00 30 1035.3
20260906175233 26 86 0.0 11.3 0.00 0.53 0.00 29 1035.3
20260906174736 25 336 0.0 12.9 0.00 0.53 0.00 30 1035.4
20260906174234 26 135 0.0 12.9 0.00 0.53 0.00 30 1035.3
20260906173733 26 139 0.0 0.0 0.00 0.53 0.00 31 1035.3
20260906173236 26 68 0.0 3.2 0.00 0.53 0.00 31 1035.3
20260906172737 26 20 0.0 3.2 0.00 0.53 0.00 32 1035.4
20260906172233 25 322 0.0 4.8 0.00 0.53 0.00 32 1035.3
20260906171737 25 70 1.6 6.4 0.00 0.53 0.00 33 1035.4
20260906171237 24 51 0.0 6.4 0.00 0.53 0.00 33 1035.4
20260906170733 24 63 1.6 3.2 0.00 0.53 0.00 34 1035.4
20260906170236 23 286 0.0 4.8 0.00 0.53 0.00 37 1035.5
20260906165736 23 35 0.0 0.0 0.00 0.53 0.00 36 1035.5
20260906165237 23 20 0.0 1.6 0.00 0.53 0.00 36 1035.6
20260906164736 23 77 0.0 0.0 0.00 0.53 0.00 38 1035.4
20260906164234 23 122 0.0 9.7 0.00 0.53 0.00 35 1035.5
20260906163736 23 52 9.7 12.9 0.00 0.53 0.00 35 1035.5
20260906163233 23 89 0.0 6.4 0.00 0.53 0.00 34 1035.5
20260906162737 23 70 0.0 0.0 0.00 0.53 0.00 35 1035.5
20260906162233 23 71 0.0 0.0 0.00 0.53 0.00 36 1035.5
20260906161733 23 148 0.0 0.0 0.00 0.53 0.00 36 1035.4
20260906161236 23 135 0.0 0.0 0.00 0.53 0.00 36 1035.3
20260906160736 22 106 0.0 0.0 0.00 0.53 0.00 39 1035.3
20260906160237 22 95 0.0 0.0 0.00 0.53 0.00 39 1035.4
20260906155736 22 74 0.0 0.0 0.00 0.53 0.00 39 1035.3
20260906155233 21 77 0.0 0.0 0.00 0.53 0.00 41 1035.3
20260906154737 21 68 0.0 0.0 0.00 0.53 0.00 41 1035.3
20260906154233 21 89 0.0 0.0 0.00 0.53 0.00 42 1035.3
20260906153733 21 27 0.0 0.0 0.00 0.53 0.00 43 1035.4
20260906153234 21 78 0.0 0.0 0.00 0.53 0.00 42 1035.4
20260906152736 21 84 0.0 0.0 0.00 0.53 0.00 42 1035.3
20260906152233 20 110 0.0 0.0 0.00 0.53 0.00 44 1035.3
20260906151736 20 58 0.0 0.0 0.00 0.53 0.00 43 1035.4
20260906151233 20 72 0.0 0.0 0.00 0.53 0.00 44 1035.5
20260906150733 20 86 0.0 0.0 0.00 0.53 0.00 44 1035.5
20260906150237 20 82 0.0 0.0 0.00 0.53 0.00 44 1035.4
20260906145733 20 113 0.0 0.0 0.00 0.53 0.00 46 1035.4
20260906145233 19 84 0.0 0.0 0.00 0.53 0.00 46 1035.4
20260906144734 19 73 0.0 0.0 0.00 0.53 0.00 45 1035.4
20260906144233 20 70 0.0 0.0 0.00 0.53 0.00 44 1035.4
20260906143736 20 177 0.0 0.0 0.00 0.53 0.00 47 1035.3
20260906143233 20 104 0.0 0.0 0.00 0.53 0.00 48 1035.3
20260906142737 20 89 0.0 0.0 0.00 0.53 0.00 48 1035.3
20260906142236 19 256 0.0 0.0 0.00 0.53 0.00 52 1035.2
20260906141737 17 256 0.0 0.0 0.00 0.53 0.00 54 1035.2
20260906141237 17 256 0.0 0.0 0.00 0.53 0.00 56 1035.2
20260906140733 17 87 0.0 0.0 0.00 0.53 0.00 54 1035.2
20260906140233 17 87 0.0 0.0 0.00 0.53 0.00 55 1035.2
20260906135736 17 87 0.0 0.0 0.00 0.53 0.00 52 1035.3
20260906135236 17 87 0.0 0.0 0.00 0.53 0.00 51 1035.3
20260906134736 18 87 0.0 0.0 0.00 0.53 0.00 49 1035.3
20260906134237 18 87 0.0 0.0 0.00 0.53 0.00 49 1035.2
20260906133736 17 87 0.0 0.0 0.00 0.53 0.00 49 1035.2
20260906133236 17 87 0.0 0.0 0.00 0.53 0.00 48 1035.3
20260906132736 18 107 0.0 0.0 0.00 0.53 0.00 45 1035.2
20260906132236 18 246 0.0 0.0 0.00 0.53 0.00 45 1035.2
20260906131736 17 246 0.0 0.0 0.00 0.53 0.00 46 1035.2
20260906131236 17 246 0.0 0.0 0.00 0.53 0.00 45 1035.2
20260906130736 17 246 0.0 0.0 0.00 0.53 0.00 46 1035.2
20260906130236 17 246 0.0 0.0 0.00 0.53 0.00 46 1035.2
20260906125736 17 246 0.0 0.0 0.00 0.53 0.00 45 1035.1
20260906125236 17 246 0.0 0.0 0.00 0.53 0.00 46 1035.2
20260906124736 17 246 0.0 0.0 0.00 0.53 0.00 46 1035.2
20260906124233 17 247 0.0 0.0 0.00 0.53 0.00 46 1035.2
20260906123736 17 247 0.0 0.0 0.00 0.53 0.00 46 1035.3
20260906123236 17 246 0.0 0.0 0.00 0.53 0.00 47 1035.2
20260906122733 17 246 0.0 0.0 0.00 0.53 0.00 48 1035.3
20260906122233 17 246 0.0 0.0 0.00 0.53 0.00 49 1035.4
20260906121736 17 246 0.0 0.0 0.00 0.53 0.00 48 1035.4
20260906121233 17 250 0.0 0.0 0.00 0.53 0.00 49 1035.4
20260906120737 17 245 0.0 0.0 0.00 0.53 0.00 50 1035.5
20260906120233 17 235 0.0 0.0 0.00 0.53 0.00 50 1035.5
20260906115733 17 262 0.0 0.0 0.00 0.53 0.00 50 1035.5
20260906115236 17 244 0.0 0.0 0.00 0.53 0.00 50 1035.7
20260906114734 17 248 0.0 0.0 0.00 0.53 0.00 51 1035.7
20260906114236 17 253 0.0 0.0 0.00 0.53 0.00 51 1035.8
20260906113733 17 250 0.0 0.0 0.00 0.53 0.00 51 1035.9
20260906113236 17 250 0.0 0.0 0.00 0.53 0.00 51 1035.8
20260906112733 17 250 0.0 0.0 0.00 0.53 0.00 50 1035.9
20260906112236 17 250 0.0 0.0 0.00 0.53 0.00 50 1035.9
20260906111737 17 240 0.0 0.0 0.00 0.53 0.00 50 1036.0
20260906111236 17 240 0.0 0.0 0.00 0.53 0.00 51 1036.0
20260906110736 17 240 0.0 0.0 0.00 0.53 0.00 51 1036.0
20260906110236 17 241 0.0 0.0 0.00 0.53 0.00 51 1036.2
20260906105737 17 240 0.0 0.0 0.00 0.53 0.00 51 1036.2
20260906105233 17 98 0.0 0.0 0.00 0.53 0.00 51 1036.3
20260906104733 16 105 0.0 0.0 0.00 0.53 0.00 52 1036.3
20260906104233 16 106 0.0 0.0 0.00 0.53 0.00 53 1036.3
20260906103733 16 105 0.0 0.0 0.00 0.53 0.00 53 1036.4
20260906103233 16 106 0.0 0.0 0.00 0.53 0.00 52 1036.4
20260906102736 17 105 0.0 0.0 0.00 0.53 0.00 51 1036.4
20260906102233 17 106 0.0 0.0 0.00 0.53 0.00 50 1036.4
20260906101737 17 106 0.0 0.0 0.00 0.53 0.00 49 1036.3
20260906101236 17 105 0.0 0.0 0.00 0.53 0.00 49 1036.3
20260906100736 17 106 0.0 0.0 0.00 0.53 0.00 49 1036.4
20260906100233 17 105 0.0 0.0 0.00 0.53 0.00 49 1036.5
20260906095736 17 107 0.0 0.0 0.00 0.53 0.00 50 1036.3
20260906095233 18 101 0.0 0.0 0.00 0.53 0.00 50 1036.4
20260906094733 18 100 0.0 0.0 0.00 0.53 0.00 48 1036.4
20260906094233 18 73 0.0 0.0 0.00 0.53 0.00 48 1036.6
20260906093733 18 98 0.0 0.0 0.00 0.53 0.00 48 1036.5
20260906093233 18 98 0.0 0.0 0.00 0.53 0.00 47 1036.5
20260906092733 18 93 0.0 0.0 0.00 0.53 0.00 46 1036.4
20260906092233 18 93 0.0 0.0 0.00 0.53 0.00 46 1036.4
20260906091737 18 122 0.0 0.0 0.00 0.53 0.00 46 1036.4
20260906091233 18 107 0.0 0.0 0.00 0.53 0.00 46 1036.5
20260906090733 19 107 0.0 0.0 0.00 0.53 0.00 45 1036.4
20260906090233 19 80 0.0 0.0 0.00 0.53 0.00 44 1036.4
20260906085733 20 238 0.0 0.0 0.00 0.53 0.00 41 1036.4
20260906085236 20 238 0.0 0.0 0.00 0.53 0.00 41 1036.4
20260906084734 20 250 0.0 0.0 0.00 0.53 0.00 42 1036.4
20260906084233 19 258 0.0 0.0 0.00 0.53 0.00 42 1036.4
20260906083736 20 251 0.0 0.0 0.00 0.53 0.00 43 1036.5
20260906083233 20 252 0.0 0.0 0.00 0.53 0.00 42 1036.5
20260906082733 20 233 0.0 0.0 0.00 0.53 0.00 42 1036.4
20260906082233 20 258 0.0 0.0 0.00 0.53 0.00 42 1036.5
20260906081733 20 249 0.0 0.0 0.00 0.53 0.00 42 1036.5
20260906081233 20 260 0.0 0.0 0.00 0.53 0.00 42 1036.5
20260906080736 20 263 0.0 0.0 0.00 0.53 0.00 44 1036.6
20260906080236 20 258 0.0 0.0 0.00 0.53 0.00 44 1036.6
20260906075736 20 246 0.0 0.0 0.00 0.53 0.00 44 1036.7
20260906075236 20 253 0.0 0.0 0.00 0.53 0.00 45 1036.7
20260906074736 20 245 0.0 0.0 0.00 0.53 0.00 45 1036.8
20260906074233 20 243 0.0 0.0 0.00 0.53 0.00 45 1037.0
20260906073736 20 269 0.0 0.0 0.00 0.53 0.00 45 1037.0
20260906073233 20 259 0.0 0.0 0.00 0.53 0.00 45 1037.0
20260906072733 19 253 0.0 0.0 0.00 0.53 0.00 46 1037.2
20260906072236 19 235 0.0 0.0 0.00 0.53 0.00 46 1037.2
20260906071736 19 242 0.0 0.0 0.00 0.53 0.00 46 1037.3
20260906071236 19 239 0.0 0.0 0.00 0.53 0.00 48 1037.3
20260906070733 19 270 0.0 0.0 0.00 0.53 0.00 48 1037.4
20260906070236 19 248 0.0 0.0 0.00 0.53 0.00 48 1037.5
20260906065733 19 249 0.0 0.0 0.00 0.53 0.00 47 1037.5
20260906065236 19 239 0.0 0.0 0.00 0.53 0.00 47 1037.7
20260906064736 19 250 0.0 0.0 0.00 0.53 0.00 48 1037.6
20260906064234 19 243 0.0 0.0 0.00 0.53 0.00 47 1037.7
20260906063736 20 248 0.0 0.0 0.00 0.53 0.00 46 1037.7
20260906063236 20 246 0.0 0.0 0.00 0.53 0.00 45 1037.8
20260906062734 20 246 0.0 0.0 0.00 0.53 0.00 47 1037.8
20260906062236 19 246 0.0 0.0 0.00 0.53 0.00 46 1038.0
20260906061733 19 245 0.0 0.0 0.00 0.53 0.00 46 1037.9
20260906061234 19 245 0.0 0.0 0.00 0.53 0.00 46 1037.9
20260906060736 20 245 0.0 0.0 0.00 0.53 0.00 46 1038.0
20260906060233 20 250 0.0 0.0 0.00 0.53 0.00 45 1038.0
20260906055736 20 250 0.0 0.0 0.00 0.53 0.00 45 1038.1
20260906055233 20 250 0.0 0.0 0.00 0.53 0.00 44 1038.0
20260906054733 20 250 0.0 0.0 0.00 0.53 0.00 44 1038.1
20260906054233 20 250 0.0 0.0 0.00 0.53 0.00 45 1038.1
20260906053733 20 136 0.0 0.0 0.00 0.53 0.00 46 1038.1
20260906053236 20 131 0.0 0.0 0.00 0.53 0.00 46 1038.1
20260906052736 20 131 0.0 0.0 0.00 0.53 0.00 44 1038.2
20260906052233 20 131 0.0 0.0 0.00 0.53 0.00 44 1038.2
20260906051733 20 131 0.0 0.0 0.00 0.53 0.00 43 1038.2
20260906051237 20 131 0.0 0.0 0.00 0.53 0.00 43 1038.2
20260906050736 21 131 0.0 0.0 0.00 0.53 0.00 42 1038.2
20260906050233 21 131 0.0 0.0 0.00 0.53 0.00 42 1038.1
20260906045736 21 139 0.0 0.0 0.00 0.53 0.00 43 1038.1
20260906045236 21 156 0.0 0.0 0.00 0.53 0.00 43 1038.1
20260906044736 21 156 0.0 0.0 0.00 0.53 0.00 42 1038.1
20260906044233 21 156 0.0 0.0 0.00 0.53 0.00 42 1038.2
20260906043733 21 95 0.0 0.0 0.00 0.53 0.00 42 1038.2
20260906043236 21 155 0.0 0.0 0.00 0.53 0.00 42 1038.1
20260906042736 21 155 0.0 0.0 0.00 0.53 0.00 41 1038.2
20260906042233 21 125 0.0 4.8 0.00 0.53 0.00 42 1038.1
20260906041736 21 126 0.0 0.0 0.00 0.53 0.00 42 1038.1
20260906041236 21 86 0.0 0.0 0.00 0.53 0.00 42 1038.0
20260906040736 21 98 0.0 0.0 0.00 0.53 0.00 41 1038.1
20260906040236 22 26 0.0 0.0 0.00 0.53 0.00 39 1038.0
20260906035733 22 241 0.0 0.0 0.00 0.53 0.00 39 1037.8
20260906035236 22 256 0.0 0.0 0.00 0.53 0.00 39 1037.9
20260906034736 22 252 0.0 0.0 0.00 0.53 0.00 39 1037.9
20260906034233 22 258 0.0 0.0 0.00 0.53 0.00 39 1037.9
20260906033736 22 242 0.0 8.0 0.00 0.53 0.00 39 1037.8
20260906033236 22 262 0.0 0.0 0.00 0.53 0.00 39 1037.7
20260906032733 22 255 0.0 0.0 0.00 0.53 0.00 39 1037.7
20260906032233 22 255 0.0 0.0 0.00 0.53 0.00 39 1037.7
20260906031736 22 269 0.0 1.6 0.00 0.53 0.00 39 1037.7
20260906031236 22 255 0.0 8.0 0.00 0.53 0.00 39 1037.6
20260906030736 22 241 0.0 0.0 0.00 0.53 0.00 38 1037.5
20260906030233 22 249 0.0 0.0 0.00 0.53 0.00 38 1037.4
20260906025733 22 270 0.0 0.0 0.00 0.53 0.00 38 1037.3
20260906025236 22 271 0.0 0.0 0.00 0.53 0.00 39 1037.2
20260906024736 22 268 0.0 0.0 0.00 0.53 0.00 39 1037.2
20260906024233 22 223 0.0 0.0 0.00 0.53 0.00 39 1037.1
20260906023736 22 269 0.0 0.0 0.00 0.53 0.00 38 1036.9
20260906023236 22 238 0.0 6.4 0.00 0.53 0.00 38 1036.9
20260906022736 23 234 0.0 8.0 0.00 0.53 0.00 37 1036.9
20260906022236 23 258 0.0 4.8 0.00 0.53 0.00 37 1036.9
20260906021736 23 257 0.0 0.0 0.00 0.53 0.00 37 1036.9
20260906021236 23 268 0.0 0.0 0.00 0.53 0.00 37 1036.9
20260906020736 23 262 0.0 0.0 0.00 0.53 0.00 37 1036.8
20260906020236 23 304 0.0 3.2 0.00 0.53 0.00 37 1036.7
20260906015736 23 255 0.0 4.8 0.00 0.53 0.00 39 1036.8
20260906015236 22 260 0.0 0.0 0.00 0.53 0.00 41 1036.6
20260906014733 22 257 0.0 0.0 0.00 0.53 0.00 43 1036.7
20260906014236 22 224 0.0 0.0 0.00 0.53 0.00 43 1036.6
20260906013733 23 225 0.0 0.0 0.00 0.53 0.00 42 1036.6
20260906013233 23 224 0.0 0.0 0.00 0.53 0.00 43 1036.5
20260906012736 23 288 0.0 0.0 0.00 0.53 0.00 41 1036.5
20260906012236 24 288 0.0 0.0 0.00 0.53 0.00 39 1036.5
20260906011736 25 288 0.0 0.0 0.00 0.53 0.00 37 1036.6
20260906011233 25 288 0.0 0.0 0.00 0.53 0.00 37 1036.5
20260906010733 25 288 0.0 0.0 0.00 0.53 0.00 36 1036.3
20260906010236 25 288 0.0 0.0 0.00 0.53 0.00 35 1036.3
20260906005736 25 314 0.0 0.0 0.00 0.53 0.00 37 1036.4
20260906005233 25 313 0.0 0.0 0.00 0.53 0.00 39 1036.2
20260906004733 25 357 0.0 0.0 0.00 0.53 0.00 39 1036.1
20260906004233 25 357 0.0 0.0 0.00 0.53 0.00 39 1036.1
20260906003733 25 335 0.0 0.0 0.00 0.53 0.00 37 1036.0
20260906003236 25 357 0.0 0.0 0.00 0.53 0.00 36 1036.0
20260906002736 25 339 0.0 0.0 0.00 0.53 0.00 37 1035.9
20260906002233 25 339 0.0 0.0 0.00 0.53 0.00 39 1035.8
20260906001733 25 339 0.0 0.0 0.00 0.53 0.00 38 1035.7
20260906001236 25 338 0.0 0.0 0.00 0.53 0.00 37 1035.6
20260906000736 25 38 0.0 0.0 0.00 0.53 0.00 37 1035.6
20260906000236 25 39 0.0 0.0 0.00 0.53 0.00 37 1035.5
20260905235736 25 38 0.0 0.0 0.00 0.53 0.00 37 1035.5
20260905235233 25 67 0.0 0.0 0.00 0.53 0.00 39 1035.4
20260905234733 25 20 0.0 0.0 0.00 0.53 0.00 39 1035.4
20260905234236 25 336 0.0 0.0 0.00 0.53 0.00 39 1035.3
20260905233736 25 335 0.0 0.0 0.00 0.53 0.00 39 1035.2
20260905233233 25 310 0.0 0.0 0.00 0.53 0.00 39 1035.1
20260905232733 25 18 0.0 0.0 0.00 0.53 0.00 40 1035.2
20260905232236 25 23 0.0 0.0 0.00 0.53 0.00 40 1035.1
20260905231736 25 14 0.0 0.0 0.00 0.53 0.00 40 1035.1
20260905231233 26 87 0.0 3.2 0.00 0.53 0.00 39 1035.0
20260905230733 26 70 0.0 0.0 0.00 0.53 0.00 38 1035.0
20260905230236 26 98 0.0 0.0 0.00 0.53 0.00 42 1035.0
20260905225736 26 66 0.0 0.0 0.00 0.53 0.00 41 1035.0
20260905225233 25 79 0.0 0.0 0.00 0.53 0.00 42 1034.9
20260905224733 25 30 0.0 0.0 0.00 0.53 0.00 42 1035.0
20260905224233 25 347 0.0 0.0 0.00 0.53 0.00 44 1034.9